Time,TemperatureF,DewpointF,PressureIn,WindDirection,WindDirectionDegrees,WindSpeedMPH,WindSpeedGustMPH,Humidity,HourlyPrecipIn,Conditions,Clouds,dailyrainin,SoftwareType,DateUTC
2013-03-11 00:02:00,33.4,32.4,29.67,NNE,22,8.0,18.0,96,0.01,,,1.02,meteohub,2013-03-11 05:02:00,
2013-03-11 00:07:00,33.4,32.4,29.67,NNE,19,12.0,12.0,96,0.01,,,0.00,meteohub,2013-03-11 05:07:00,
2013-03-11 00:12:00,33.4,32.4,29.67,North,9,7.0,15.0,96,0.01,,,0.00,meteohub,2013-03-11 05:12:00,
2013-03-11 00:18:00,33.4,32.4,29.66,NNE,17,12.0,15.0,96,0.01,,,0.00,meteohub,2013-03-11 05:18:00,
2013-03-11 00:23:00,33.3,32.2,29.66,NNE,19,12.0,15.0,96,0.01,,,0.00,meteohub,2013-03-11 05:23:00,
2013-03-11 00:28:00,33.3,32.2,29.65,NNE,32,10.0,16.0,96,0.01,,,0.00,meteohub,2013-03-11 05:28:00,
2013-03-11 00:33:00,33.4,32.4,29.65,North,5,11.0,16.0,96,0.01,,,0.00,meteohub,2013-03-11 05:33:00,
2013-03-11 00:38:00,33.3,32.2,29.65,NNE,17,8.0,14.0,96,0.00,,,0.00,meteohub,2013-03-11 05:38:00,
2013-03-11 00:44:00,33.3,32.2,29.65,NNE,15,7.0,14.0,96,0.00,,,0.00,meteohub,2013-03-11 05:44:00,
2013-03-11 00:49:00,33.3,32.2,29.65,NNE,12,5.0,14.0,96,0.00,,,0.00,meteohub,2013-03-11 05:49:00,
2013-03-11 00:54:00,33.3,32.2,29.65,NNE,17,9.0,14.0,96,0.00,,,0.00,meteohub,2013-03-11 05:54:00,
2013-03-11 00:59:00,33.3,32.2,29.65,NNE,19,10.0,13.0,96,0.00,,,0.00,meteohub,2013-03-11 05:59:00,
2013-03-11 01:05:00,33.3,32.5,29.66,North,0,13.0,13.0,97,0.00,,,0.00,meteohub,2013-03-11 06:05:00,
2013-03-11 01:10:00,33.1,32.4,29.65,NNE,13,7.0,13.0,97,0.00,,,0.00,meteohub,2013-03-11 06:10:00,
2013-03-11 01:15:00,33.1,32.4,29.65,North,0,10.0,13.0,97,0.00,,,0.00,meteohub,2013-03-11 06:15:00,
2013-03-11 01:20:00,33.1,32.4,29.65,North,5,11.0,13.0,97,0.00,,,0.00,meteohub,2013-03-11 06:20:00,
2013-03-11 01:25:00,33.1,32.0,29.65,NE,34,11.0,13.0,96,0.00,,,0.00,meteohub,2013-03-11 06:25:00,
2013-03-11 01:30:00,33.1,32.0,29.65,NNE,13,8.0,13.0,96,0.00,,,0.00,meteohub,2013-03-11 06:30:00,
2013-03-11 01:35:00,33.1,32.0,29.65,NNE,13,5.0,13.0,96,0.00,,,0.00,meteohub,2013-03-11 06:35:00,
2013-03-11 01:40:00,33.1,32.4,29.64,NNE,17,4.0,13.0,97,0.00,,,0.00,meteohub,2013-03-11 06:40:00,
2013-03-11 01:45:00,32.7,32.0,29.64,North,0,9.0,11.0,97,0.00,,,0.00,meteohub,2013-03-11 06:45:00,
2013-03-11 01:50:00,32.7,32.0,29.64,NNE,14,7.0,11.0,97,0.00,,,0.00,meteohub,2013-03-11 06:50:00,
2013-03-11 01:56:00,32.7,32.0,29.64,North,11,8.0,11.0,97,0.00,,,0.00,meteohub,2013-03-11 06:56:00,
2013-03-11 02:01:00,32.5,31.8,29.64,North,10,6.0,11.0,97,0.00,,,0.00,meteohub,2013-03-11 07:01:00,
2013-03-11 02:06:00,32.5,31.8,29.64,North,5,6.0,11.0,97,0.00,,,0.00,meteohub,2013-03-11 07:06:00,
2013-03-11 02:12:00,32.5,31.8,29.63,NNE,13,6.0,9.0,97,0.00,,,0.00,meteohub,2013-03-11 07:12:00,
2013-03-11 02:17:00,32.5,31.8,29.63,NNE,22,5.0,11.0,97,0.00,,,0.00,meteohub,2013-03-11 07:17:00,
2013-03-11 02:22:00,32.5,31.8,29.63,NNE,15,6.0,11.0,97,0.00,,,0.00,meteohub,2013-03-11 07:22:00,
2013-03-11 02:27:00,32.4,31.6,29.63,NNE,18,8.0,12.0,97,0.00,,,0.00,meteohub,2013-03-11 07:27:00,
2013-03-11 02:32:00,32.4,31.6,29.63,NNE,16,7.0,12.0,97,0.00,,,0.00,meteohub,2013-03-11 07:32:00,
2013-03-11 02:37:00,32.4,31.6,29.63,North,0,6.0,12.0,97,0.00,,,0.00,meteohub,2013-03-11 07:37:00,
2013-03-11 02:42:00,32.4,31.6,29.63,NNE,25,5.0,11.0,97,0.00,,,0.00,meteohub,2013-03-11 07:42:00,
2013-03-11 02:48:00,32.4,31.6,29.63,NNE,15,6.0,10.0,97,0.00,,,0.00,meteohub,2013-03-11 07:48:00,
2013-03-11 02:53:00,32.4,31.6,29.63,NNE,22,5.0,10.0,97,0.00,,,0.00,meteohub,2013-03-11 07:53:00,
2013-03-11 02:58:00,32.4,31.6,29.63,North,355,9.0,10.0,97,0.00,,,0.00,meteohub,2013-03-11 07:58:00,
2013-03-11 03:03:00,32.4,31.6,29.63,North,9,7.0,9.0,97,0.00,,,0.00,meteohub,2013-03-11 08:03:00,
2013-03-11 03:09:00,32.4,31.6,29.62,NNE,17,7.0,10.0,97,0.00,,,0.00,meteohub,2013-03-11 08:09:00,
2013-03-11 03:14:00,32.4,31.6,29.62,North,11,5.0,10.0,97,0.00,,,0.00,meteohub,2013-03-11 08:14:00,
2013-03-11 03:19:00,32.4,31.6,29.62,NNE,19,6.0,10.0,97,0.00,,,0.00,meteohub,2013-03-11 08:19:00,
2013-03-11 03:24:00,32.4,31.6,29.61,NNE,17,10.0,10.0,97,0.00,,,0.00,meteohub,2013-03-11 08:24:00,
2013-03-11 03:29:00,32.4,31.6,29.60,NNE,19,8.0,10.0,97,0.00,,,0.00,meteohub,2013-03-11 08:29:00,
2013-03-11 03:34:00,32.4,31.6,29.61,NNE,17,5.0,12.0,97,0.00,,,0.00,meteohub,2013-03-11 08:34:00,
2013-03-11 03:39:00,32.4,31.6,29.61,North,5,6.0,12.0,97,0.00,,,0.00,meteohub,2013-03-11 08:39:00,
2013-03-11 03:44:00,32.4,31.6,29.62,North,0,8.0,12.0,97,0.00,,,0.00,meteohub,2013-03-11 08:44:00,
2013-03-11 03:49:00,32.4,31.6,29.62,North,350,6.0,10.0,97,0.00,,,0.00,meteohub,2013-03-11 08:49:00,
2013-03-11 03:54:00,32.4,31.6,29.62,NNW,342,6.0,9.0,97,0.00,,,0.00,meteohub,2013-03-11 08:54:00,
2013-03-11 03:59:00,32.4,31.6,29.62,NNW,342,6.0,9.0,97,0.00,,,0.00,meteohub,2013-03-11 08:59:00,
2013-03-11 04:05:00,32.4,31.6,29.62,North,355,5.0,9.0,97,0.00,,,0.00,meteohub,2013-03-11 09:05:00,
2013-03-11 04:10:00,32.4,31.6,29.61,North,5,4.0,8.0,97,0.00,,,0.00,meteohub,2013-03-11 09:10:00,
2013-03-11 04:15:00,32.4,31.6,29.61,North,11,4.0,7.0,97,0.00,,,0.00,meteohub,2013-03-11 09:15:00,
2013-03-11 04:20:00,32.4,31.6,29.61,North,355,6.0,7.0,97,0.00,,,0.00,meteohub,2013-03-11 09:20:00,
2013-03-11 04:26:00,32.4,31.6,29.61,North,355,7.0,8.0,97,0.00,,,0.00,meteohub,2013-03-11 09:26:00,
2013-03-11 04:31:00,32.4,31.6,29.61,North,355,5.0,10.0,97,0.00,,,0.00,meteohub,2013-03-11 09:31:00,
2013-03-11 04:37:00,32.4,31.6,29.61,NNW,344,7.0,10.0,97,0.00,,,0.00,meteohub,2013-03-11 09:37:00,
2013-03-11 04:42:00,32.4,31.6,29.61,North,355,8.0,10.0,97,0.00,,,0.00,meteohub,2013-03-11 09:42:00,
2013-03-11 04:47:00,32.4,31.6,29.61,NNW,347,10.0,10.0,97,0.00,,,0.00,meteohub,2013-03-11 09:47:00,
2013-03-11 04:52:00,32.4,31.6,29.60,North,350,7.0,11.0,97,0.00,,,0.00,meteohub,2013-03-11 09:52:00,
2013-03-11 04:57:00,32.4,31.6,29.60,NNW,345,4.0,11.0,97,0.00,,,0.00,meteohub,2013-03-11 09:57:00,
2013-03-11 05:02:00,32.4,31.6,29.60,North,349,5.0,11.0,97,0.00,,,0.00,meteohub,2013-03-11 10:02:00,
2013-03-11 05:08:00,32.4,31.6,29.60,North,355,5.0,9.0,97,0.00,,,0.00,meteohub,2013-03-11 10:08:00,
2013-03-11 05:13:00,32.4,31.6,29.60,North,355,7.0,10.0,97,0.00,,,0.00,meteohub,2013-03-11 10:13:00,
2013-03-11 05:18:00,32.4,31.6,29.61,North,355,8.0,10.0,97,0.00,,,0.00,meteohub,2013-03-11 10:18:00,
2013-03-11 05:23:00,32.4,31.6,29.60,North,5,9.0,9.0,97,0.00,,,0.00,meteohub,2013-03-11 10:23:00,
2013-03-11 05:29:00,32.4,31.6,29.60,North,0,5.0,9.0,97,0.00,,,0.00,meteohub,2013-03-11 10:29:00,
2013-03-11 05:34:00,32.4,31.6,29.60,North,0,6.0,9.0,97,0.00,,,0.00,meteohub,2013-03-11 10:34:00,
2013-03-11 05:39:00,32.4,31.6,29.60,North,355,7.0,9.0,97,0.00,,,0.00,meteohub,2013-03-11 10:39:00,
2013-03-11 05:44:00,32.4,31.6,29.61,North,355,4.0,9.0,97,0.00,,,0.00,meteohub,2013-03-11 10:44:00,
2013-03-11 05:49:00,32.4,31.6,29.61,North,355,4.0,9.0,97,0.00,,,0.00,meteohub,2013-03-11 10:49:00,
2013-03-11 05:54:00,32.4,31.6,29.61,North,355,3.0,8.0,97,0.00,,,0.00,meteohub,2013-03-11 10:54:00,
2013-03-11 05:59:00,32.5,31.8,29.61,North,355,4.0,7.0,97,0.00,,,0.00,meteohub,2013-03-11 10:59:00,
2013-03-11 06:04:00,32.5,31.8,29.62,North,355,3.0,7.0,97,0.00,,,0.00,meteohub,2013-03-11 11:04:00,
2013-03-11 06:10:00,32.5,31.8,29.62,North,355,2.0,7.0,97,0.00,,,0.00,meteohub,2013-03-11 11:10:00,
2013-03-11 06:15:00,32.5,31.8,29.62,North,355,2.0,7.0,97,0.00,,,0.00,meteohub,2013-03-11 11:15:00,
2013-03-11 06:20:00,32.5,31.8,29.62,North,355,2.0,3.0,97,0.00,,,0.00,meteohub,2013-03-11 11:20:00,
2013-03-11 06:25:00,32.5,31.8,29.62,North,355,0.0,4.0,97,0.00,,,0.00,meteohub,2013-03-11 11:25:00,
2013-03-11 06:30:00,32.5,31.8,29.62,North,355,1.0,4.0,97,0.00,,,0.00,meteohub,2013-03-11 11:30:00,
2013-03-11 06:35:00,32.5,31.8,29.62,North,355,2.0,3.0,97,0.00,,,0.00,meteohub,2013-03-11 11:35:00,
2013-03-11 06:41:00,32.5,31.8,29.62,North,355,2.0,3.0,97,0.00,,,0.00,meteohub,2013-03-11 11:41:00,
2013-03-11 06:46:00,32.5,31.8,29.63,North,355,0.0,4.0,97,0.00,,,0.00,meteohub,2013-03-11 11:46:00,
2013-03-11 06:51:00,32.5,31.8,29.63,North,355,1.0,4.0,97,0.00,,,0.00,meteohub,2013-03-11 11:51:00,
2013-03-11 06:57:00,32.5,31.8,29.63,North,355,0.0,4.0,97,0.00,,,0.00,meteohub,2013-03-11 11:57:00,
2013-03-11 07:02:00,32.5,31.8,29.64,North,355,0.0,2.0,97,0.00,,,0.00,meteohub,2013-03-11 12:02:00,
2013-03-11 07:07:00,32.5,31.8,29.64,North,355,0.0,2.0,97,0.00,,,0.00,meteohub,2013-03-11 12:07:00,
2013-03-11 07:12:00,32.5,31.8,29.65,North,355,3.0,3.0,97,0.00,,,0.00,meteohub,2013-03-11 12:12:00,
2013-03-11 07:17:00,32.5,31.8,29.65,North,355,0.0,4.0,97,0.00,,,0.00,meteohub,2013-03-11 12:17:00,
2013-03-11 07:22:00,32.5,31.8,29.64,North,355,0.0,4.0,97,0.00,,,0.00,meteohub,2013-03-11 12:22:00,
2013-03-11 07:27:00,32.5,31.8,29.65,North,355,0.0,4.0,97,0.00,,,0.00,meteohub,2013-03-11 12:27:00,
2013-03-11 07:32:00,32.5,31.8,29.65,North,355,0.0,1.0,97,0.00,,,0.00,meteohub,2013-03-11 12:32:00,
2013-03-11 07:37:00,32.5,31.8,29.64,North,355,0.0,2.0,97,0.00,,,0.00,meteohub,2013-03-11 12:37:00,
2013-03-11 07:42:00,32.5,31.8,29.64,North,355,0.0,2.0,97,0.00,,,0.00,meteohub,2013-03-11 12:42:00,
2013-03-11 07:47:00,32.5,31.8,29.64,North,355,0.0,2.0,97,0.00,,,0.00,meteohub,2013-03-11 12:47:00,
2013-03-11 07:52:00,32.5,31.8,29.64,North,355,3.0,3.0,97,0.00,,,0.00,meteohub,2013-03-11 12:52:00,
2013-03-11 07:57:00,32.5,31.8,29.64,North,355,1.0,4.0,97,0.00,,,0.00,meteohub,2013-03-11 12:57:00,
2013-03-11 08:02:00,32.5,31.8,29.64,North,355,1.0,4.0,97,0.00,,,0.00,meteohub,2013-03-11 13:02:00,
2013-03-11 08:07:00,32.5,31.8,29.64,North,355,2.0,4.0,97,0.00,,,0.00,meteohub,2013-03-11 13:07:00,
2013-03-11 08:13:00,32.5,31.8,29.64,North,355,0.0,4.0,97,0.00,,,0.00,meteohub,2013-03-11 13:13:00,
2013-03-11 08:18:00,32.5,31.8,29.65,North,355,1.0,4.0,97,0.00,,,0.00,meteohub,2013-03-11 13:18:00,
2013-03-11 08:23:00,32.5,31.8,29.64,North,355,0.0,4.0,97,0.00,,,0.00,meteohub,2013-03-11 13:23:00,
2013-03-11 08:28:00,32.5,31.8,29.63,North,355,4.0,4.0,97,0.00,,,0.00,meteohub,2013-03-11 13:28:00,
2013-03-11 08:33:00,32.5,31.8,29.63,North,349,4.0,5.0,97,0.00,,,0.00,meteohub,2013-03-11 13:33:00,
2013-03-11 08:38:00,32.5,31.8,29.63,NNW,342,3.0,5.0,97,0.00,,,0.00,meteohub,2013-03-11 13:38:00,
2013-03-11 08:44:00,32.5,31.8,29.63,NNW,342,2.0,6.0,97,0.00,,,0.00,meteohub,2013-03-11 13:44:00,
2013-03-11 08:49:00,32.5,31.8,29.63,NNW,342,5.0,6.0,97,0.00,,,0.00,meteohub,2013-03-11 13:49:00,
2013-03-11 08:54:00,32.5,31.8,29.63,NNW,342,5.0,5.0,97,0.00,,,0.00,meteohub,2013-03-11 13:54:00,
2013-03-11 08:59:00,32.5,31.8,29.63,NNW,341,6.0,6.0,97,0.00,,,0.00,meteohub,2013-03-11 13:59:00,
2013-03-11 09:04:00,32.5,31.8,29.63,NNW,341,5.0,6.0,97,0.00,,,0.00,meteohub,2013-03-11 14:04:00,
2013-03-11 09:09:00,32.5,31.8,29.63,NNW,333,5.0,6.0,97,0.00,,,0.00,meteohub,2013-03-11 14:09:00,
2013-03-11 09:15:00,32.5,31.8,29.63,NNW,333,6.0,7.0,97,0.00,,,0.00,meteohub,2013-03-11 14:15:00,
2013-03-11 09:20:00,32.5,31.8,29.63,NNW,333,5.0,7.0,97,0.00,,,0.00,meteohub,2013-03-11 14:20:00,
2013-03-11 09:25:00,32.7,32.0,29.62,NNW,337,3.0,6.0,97,0.00,,,0.00,meteohub,2013-03-11 14:25:00,
2013-03-11 09:30:00,32.7,32.0,29.62,NNW,337,6.0,7.0,97,0.00,,,0.00,meteohub,2013-03-11 14:30:00,
2013-03-11 09:35:00,32.7,32.0,29.62,NNW,338,3.0,7.0,97,0.00,,,0.00,meteohub,2013-03-11 14:35:00,
2013-03-11 09:41:00,32.7,32.0,29.62,NNW,329,2.0,7.0,97,0.00,,,0.00,meteohub,2013-03-11 14:41:00,
2013-03-11 09:46:00,32.7,32.0,29.62,NNW,329,4.0,7.0,97,0.00,,,0.00,meteohub,2013-03-11 14:46:00,
2013-03-11 09:51:00,32.7,32.0,29.62,NNW,333,6.0,7.0,97,0.00,,,0.00,meteohub,2013-03-11 14:51:00,
2013-03-11 09:57:00,32.7,32.0,29.61,NNW,336,6.0,8.0,97,0.00,,,0.00,meteohub,2013-03-11 14:57:00,
2013-03-11 10:02:00,32.7,32.0,29.61,NNW,341,6.0,8.0,97,0.00,,,0.00,meteohub,2013-03-11 15:02:00,
2013-03-11 10:07:00,32.7,32.0,29.61,NNW,343,5.0,9.0,97,0.00,,,0.00,meteohub,2013-03-11 15:07:00,
2013-03-11 10:12:00,32.9,32.2,29.60,NNW,343,6.0,9.0,97,0.00,,,0.00,meteohub,2013-03-11 15:12:00,
2013-03-11 10:17:00,33.1,32.4,29.60,NNW,344,7.0,9.0,97,0.00,,,0.00,meteohub,2013-03-11 15:17:00,
2013-03-11 10:22:00,33.1,32.4,29.60,NNW,344,6.0,10.0,97,0.00,,,0.00,meteohub,2013-03-11 15:22:00,
2013-03-11 10:27:00,33.1,32.4,29.59,North,355,7.0,10.0,97,0.00,,,0.00,meteohub,2013-03-11 15:27:00,
2013-03-11 10:33:00,32.9,32.2,29.59,NNW,344,6.0,10.0,97,0.00,,,0.00,meteohub,2013-03-11 15:33:00,
2013-03-11 10:38:00,32.7,32.0,29.59,NNW,347,5.0,10.0,97,0.00,,,0.00,meteohub,2013-03-11 15:38:00,
2013-03-11 10:43:00,32.9,32.2,29.60,NNW,347,3.0,10.0,97,0.00,,,0.00,meteohub,2013-03-11 15:43:00,
2013-03-11 10:48:00,33.1,32.4,29.60,NNW,347,3.0,8.0,97,0.00,,,0.00,meteohub,2013-03-11 15:48:00,
2013-03-11 10:53:00,33.1,32.4,29.59,North,5,6.0,7.0,97,0.00,,,0.00,meteohub,2013-03-11 15:53:00,
2013-03-11 10:58:00,33.1,32.4,29.59,North,0,5.0,8.0,97,0.00,,,0.00,meteohub,2013-03-11 15:58:00,
2013-03-11 11:03:00,33.3,32.5,29.59,North,0,7.0,9.0,97,0.00,,,0.00,meteohub,2013-03-11 16:03:00,
2013-03-11 11:08:00,33.3,32.5,29.59,North,0,5.0,9.0,97,0.00,,,0.00,meteohub,2013-03-11 16:08:00,
2013-03-11 11:14:00,33.3,32.5,29.59,North,355,5.0,9.0,97,0.00,,,0.00,meteohub,2013-03-11 16:14:00,
2013-03-11 11:19:00,33.3,32.5,29.59,North,355,5.0,8.0,97,0.00,,,0.00,meteohub,2013-03-11 16:19:00,
2013-03-11 11:24:00,33.3,32.5,29.60,North,355,3.0,7.0,97,0.00,,,0.00,meteohub,2013-03-11 16:24:00,
2013-03-11 11:29:00,33.3,32.5,29.60,North,355,3.0,6.0,97,0.00,,,0.00,meteohub,2013-03-11 16:29:00,
2013-03-11 11:34:00,33.3,32.5,29.60,North,355,3.0,6.0,97,0.00,,,0.00,meteohub,2013-03-11 16:34:00,
2013-03-11 11:39:00,33.3,32.5,29.60,North,355,4.0,6.0,97,0.00,,,0.00,meteohub,2013-03-11 16:39:00,
2013-03-11 11:44:00,33.3,32.5,29.60,North,355,4.0,5.0,97,0.00,,,0.00,meteohub,2013-03-11 16:44:00,
2013-03-11 11:50:00,33.1,32.4,29.60,North,355,2.0,5.0,97,0.00,,,0.00,meteohub,2013-03-11 16:50:00,
2013-03-11 11:55:00,33.3,32.5,29.60,NNW,345,5.0,6.0,97,0.00,,,0.00,meteohub,2013-03-11 16:55:00,
2013-03-11 12:00:00,33.3,32.5,29.59,NNW,345,4.0,6.0,97,0.00,,,0.00,meteohub,2013-03-11 17:00:00,
2013-03-11 12:06:00,33.3,32.5,29.59,NNW,345,4.0,7.0,97,0.00,,,0.00,meteohub,2013-03-11 17:06:00,
2013-03-11 12:11:00,33.3,32.5,29.59,NNW,345,6.0,7.0,97,0.00,,,0.00,meteohub,2013-03-11 17:11:00,
2013-03-11 12:17:00,33.3,32.5,29.59,NNW,348,5.0,7.0,97,0.00,,,0.00,meteohub,2013-03-11 17:17:00,
2013-03-11 12:22:00,33.3,32.5,29.59,NNW,348,3.0,7.0,97,0.00,,,0.00,meteohub,2013-03-11 17:22:00,
2013-03-11 12:27:00,33.3,32.5,29.58,NNW,346,4.0,6.0,97,0.00,,,0.00,meteohub,2013-03-11 17:27:00,
2013-03-11 12:32:00,33.3,32.5,29.58,NNW,344,6.0,7.0,97,0.00,,,0.00,meteohub,2013-03-11 17:32:00,
2013-03-11 12:37:00,33.3,32.5,29.59,NNW,344,5.0,7.0,97,0.00,,,0.00,meteohub,2013-03-11 17:37:00,
2013-03-11 12:42:00,33.3,32.5,29.59,NNW,344,5.0,7.0,97,0.00,,,0.00,meteohub,2013-03-11 17:42:00,
2013-03-11 12:47:00,33.1,32.4,29.59,NNW,344,6.0,7.0,97,0.00,,,0.00,meteohub,2013-03-11 17:47:00,
2013-03-11 12:52:00,33.1,32.4,29.58,NNW,345,4.0,7.0,97,0.00,,,0.00,meteohub,2013-03-11 17:52:00,
2013-03-11 12:57:00,33.1,32.4,29.58,NNW,345,4.0,7.0,97,0.00,,,0.00,meteohub,2013-03-11 17:57:00,
2013-03-11 13:03:00,33.1,32.4,29.58,NNW,344,6.0,7.0,97,0.00,,,0.00,meteohub,2013-03-11 18:03:00,
2013-03-11 13:08:00,33.1,32.4,29.58,NNW,344,6.0,7.0,97,0.00,,,0.00,meteohub,2013-03-11 18:08:00,
2013-03-11 13:13:00,33.1,32.4,29.58,NNW,344,5.0,8.0,97,0.00,,,0.00,meteohub,2013-03-11 18:13:00,
2013-03-11 13:19:00,33.1,32.4,29.58,NNW,343,5.0,8.0,97,0.00,,,0.00,meteohub,2013-03-11 18:19:00,
2013-03-11 13:24:00,33.1,32.4,29.57,NNW,344,7.0,8.0,97,0.00,,,0.00,meteohub,2013-03-11 18:24:00,
2013-03-11 13:29:00,33.1,32.4,29.57,NNW,345,6.0,9.0,97,0.00,,,0.00,meteohub,2013-03-11 18:29:00,
2013-03-11 13:34:00,32.9,32.2,29.57,NNW,344,8.0,9.0,97,0.00,,,0.00,meteohub,2013-03-11 18:34:00,
2013-03-11 13:39:00,32.9,32.2,29.57,NNW,345,6.0,9.0,97,0.00,,,0.00,meteohub,2013-03-11 18:39:00,
2013-03-11 13:44:00,32.9,32.2,29.57,NNW,345,5.0,9.0,97,0.00,,,0.00,meteohub,2013-03-11 18:44:00,
2013-03-11 13:50:00,32.7,32.0,29.57,NNW,342,6.0,8.0,97,0.00,,,0.00,meteohub,2013-03-11 18:50:00,
2013-03-11 13:55:00,32.7,32.0,29.56,NNW,342,5.0,8.0,97,0.00,,,0.00,meteohub,2013-03-11 18:55:00,
2013-03-11 14:00:00,32.9,32.2,29.56,NNW,335,4.0,8.0,97,0.00,,,0.00,meteohub,2013-03-11 19:00:00,
2013-03-11 14:05:00,32.9,32.2,29.56,NNW,335,4.0,7.0,97,0.01,,,0.01,meteohub,2013-03-11 19:05:00,
2013-03-11 14:10:00,32.9,32.2,29.56,NNW,338,5.0,7.0,97,0.02,,,0.02,meteohub,2013-03-11 19:10:00,
2013-03-11 14:16:00,32.9,32.2,29.56,NNW,332,6.0,7.0,97,0.02,,,0.02,meteohub,2013-03-11 19:16:00,
2013-03-11 14:21:00,33.1,32.4,29.56,NNW,331,5.0,7.0,97,0.02,,,0.02,meteohub,2013-03-11 19:21:00,
2013-03-11 14:26:00,33.1,32.4,29.57,NNW,331,4.0,7.0,97,0.02,,,0.02,meteohub,2013-03-11 19:26:00,
2013-03-11 14:32:00,32.9,32.2,29.56,NNW,331,6.0,7.0,97,0.02,,,0.02,meteohub,2013-03-11 19:32:00,
2013-03-11 14:37:00,32.9,32.2,29.56,NNW,330,4.0,8.0,97,0.03,,,0.03,meteohub,2013-03-11 19:37:00,
2013-03-11 14:42:00,32.9,32.2,29.56,NNW,330,5.0,8.0,97,0.03,,,0.03,meteohub,2013-03-11 19:42:00,
2013-03-11 14:47:00,32.9,32.2,29.56,NNW,329,6.0,8.0,97,0.03,,,0.03,meteohub,2013-03-11 19:47:00,
2013-03-11 14:52:00,32.9,32.2,29.56,NNW,327,4.0,8.0,97,0.03,,,0.03,meteohub,2013-03-11 19:52:00,
2013-03-11 14:57:00,32.7,32.0,29.56,NNW,327,5.0,8.0,97,0.04,,,0.04,meteohub,2013-03-11 19:57:00,
2013-03-11 15:02:00,32.9,32.2,29.56,NNW,327,2.0,7.0,97,0.03,,,0.04,meteohub,2013-03-11 20:02:00,
2013-03-11 15:07:00,32.9,32.2,29.56,NNW,327,5.0,7.0,97,0.03,,,0.04,meteohub,2013-03-11 20:07:00,
2013-03-11 15:12:00,33.1,32.4,29.56,NNW,327,2.0,7.0,97,0.02,,,0.04,meteohub,2013-03-11 20:12:00,
2013-03-11 15:17:00,33.1,32.4,29.56,NNW,327,2.0,6.0,97,0.02,,,0.04,meteohub,2013-03-11 20:17:00,
2013-03-11 15:22:00,33.1,32.4,29.56,NNW,327,4.0,5.0,97,0.03,,,0.05,meteohub,2013-03-11 20:22:00,
2013-03-11 15:27:00,33.1,32.4,29.56,NNW,327,3.0,5.0,97,0.03,,,0.05,meteohub,2013-03-11 20:27:00,
2013-03-11 15:33:00,33.3,32.5,29.57,NNW,333,4.0,8.0,97,0.04,,,0.06,meteohub,2013-03-11 20:33:00,
2013-03-11 15:38:00,33.3,32.5,29.57,NNW,333,4.0,8.0,97,0.03,,,0.06,meteohub,2013-03-11 20:38:00,
2013-03-11 15:43:00,33.3,32.5,29.57,NNW,332,3.0,8.0,97,0.03,,,0.06,meteohub,2013-03-11 20:43:00,
2013-03-11 15:48:00,33.3,32.5,29.57,NNW,332,0.0,6.0,97,0.03,,,0.06,meteohub,2013-03-11 20:48:00,
2013-03-11 15:54:00,33.4,32.7,29.57,NNW,332,0.0,6.0,97,0.02,,,0.06,meteohub,2013-03-11 20:54:00,
2013-03-11 15:59:00,33.6,33.1,29.57,NNW,332,1.0,6.0,98,0.02,,,0.06,meteohub,2013-03-11 20:59:00,
2013-03-11 16:04:00,33.4,32.9,29.57,NW,323,4.0,6.0,98,0.02,,,0.06,meteohub,2013-03-11 21:04:00,
2013-03-11 16:09:00,33.6,33.1,29.57,NW,323,3.0,6.0,98,0.02,,,0.06,meteohub,2013-03-11 21:09:00,
2013-03-11 16:15:00,33.6,33.1,29.57,NW,323,1.0,6.0,98,0.02,,,0.06,meteohub,2013-03-11 21:15:00,
2013-03-11 16:20:00,33.8,33.3,29.57,NW,323,0.0,5.0,98,0.01,,,0.06,meteohub,2013-03-11 21:20:00,
2013-03-11 16:25:00,33.6,33.1,29.57,NW,323,0.0,4.0,98,0.01,,,0.06,meteohub,2013-03-11 21:25:00,
2013-03-11 16:30:00,33.6,33.1,29.57,NW,323,1.0,4.0,98,0.00,,,0.06,meteohub,2013-03-11 21:30:00,
2013-03-11 16:35:00,33.6,33.1,29.57,NW,323,0.0,4.0,98,0.00,,,0.06,meteohub,2013-03-11 21:35:00,
2013-03-11 16:40:00,33.6,33.1,29.57,NW,323,2.0,4.0,98,0.00,,,0.06,meteohub,2013-03-11 21:40:00,
2013-03-11 16:46:00,33.6,32.9,29.57,WNW,298,0.0,6.0,97,0.00,,,0.06,meteohub,2013-03-11 21:46:00,
2013-03-11 16:52:00,33.4,32.7,29.57,WNW,298,2.0,6.0,97,0.00,,,0.06,meteohub,2013-03-11 21:52:00,
2013-03-11 16:57:00,33.3,32.5,29.57,WNW,292,2.0,6.0,97,0.00,,,0.06,meteohub,2013-03-11 21:57:00,
2013-03-11 17:02:00,33.3,32.5,29.57,WNW,291,2.0,6.0,97,0.00,,,0.06,meteohub,2013-03-11 22:02:00,
2013-03-11 17:07:00,33.3,32.5,29.57,WNW,287,4.0,6.0,97,0.00,,,0.06,meteohub,2013-03-11 22:07:00,
2013-03-11 17:12:00,33.3,32.5,29.57,WNW,286,4.0,6.0,97,0.00,,,0.06,meteohub,2013-03-11 22:12:00,
2013-03-11 17:17:00,33.1,32.4,29.58,West,281,5.0,6.0,97,0.00,,,0.06,meteohub,2013-03-11 22:17:00,
2013-03-11 17:22:00,33.1,32.4,29.58,West,275,2.0,7.0,97,0.00,,,0.06,meteohub,2013-03-11 22:22:00,
2013-03-11 17:28:00,33.1,32.4,29.58,West,274,4.0,8.0,97,0.00,,,0.06,meteohub,2013-03-11 22:28:00,
2013-03-11 17:33:00,33.1,32.4,29.59,West,280,3.0,8.0,97,0.00,,,0.06,meteohub,2013-03-11 22:33:00,
2013-03-11 17:38:00,33.1,32.4,29.59,West,268,2.0,10.0,97,0.00,,,0.06,meteohub,2013-03-11 22:38:00,
2013-03-11 17:43:00,33.1,32.4,29.59,West,267,6.0,10.0,97,0.00,,,0.06,meteohub,2013-03-11 22:43:00,
2013-03-11 17:48:00,33.1,32.4,29.60,West,265,5.0,9.0,97,0.00,,,0.06,meteohub,2013-03-11 22:48:00,
2013-03-11 17:53:00,33.1,32.4,29.60,West,265,4.0,9.0,97,0.01,,,0.06,meteohub,2013-03-11 22:53:00,
2013-03-11 17:58:00,32.9,32.2,29.60,West,275,6.0,10.0,97,0.01,,,0.07,meteohub,2013-03-11 22:58:00,
2013-03-11 18:04:00,32.9,32.2,29.60,West,261,4.0,10.0,97,0.01,,,0.07,meteohub,2013-03-11 23:04:00,
2013-03-11 18:09:00,32.7,32.0,29.60,West,271,5.0,10.0,97,0.01,,,0.07,meteohub,2013-03-11 23:09:00,
2013-03-11 18:14:00,32.7,32.0,29.61,West,273,8.0,10.0,97,0.01,,,0.07,meteohub,2013-03-11 23:14:00,
2013-03-11 18:19:00,32.7,32.0,29.61,WSW,252,7.0,10.0,97,0.01,,,0.07,meteohub,2013-03-11 23:19:00,
2013-03-11 18:24:00,32.9,32.2,29.62,West,280,5.0,10.0,97,0.01,,,0.07,meteohub,2013-03-11 23:24:00,
2013-03-11 18:29:00,32.9,32.2,29.62,West,274,7.0,11.0,97,0.01,,,0.07,meteohub,2013-03-11 23:29:00,
2013-03-11 18:34:00,32.7,31.6,29.62,West,269,6.0,13.0,96,0.01,,,0.07,meteohub,2013-03-11 23:34:00,
2013-03-11 18:40:00,32.7,31.6,29.63,West,262,5.0,13.0,96,0.01,,,0.07,meteohub,2013-03-11 23:40:00,
2013-03-11 18:45:00,32.5,31.5,29.63,WNW,284,5.0,14.0,96,0.01,,,0.07,meteohub,2013-03-11 23:45:00,
2013-03-11 18:50:00,32.5,31.5,29.63,WSW,252,5.0,14.0,96,0.00,,,0.07,meteohub,2013-03-11 23:50:00,
2013-03-11 18:56:00,32.5,31.3,29.63,West,276,7.0,11.0,95,0.00,,,0.07,meteohub,2013-03-11 23:56:00,
2013-03-11 19:01:00,32.5,31.3,29.64,West,271,4.0,11.0,95,0.00,,,0.07,meteohub,2013-03-12 00:01:00,
2013-03-11 19:06:00,32.4,31.1,29.64,WSW,257,3.0,8.0,95,0.00,,,0.07,meteohub,2013-03-12 00:06:00,
2013-03-11 19:11:00,32.4,31.1,29.64,WNW,290,6.0,9.0,95,0.00,,,0.07,meteohub,2013-03-12 00:11:00,
2013-03-11 19:17:00,32.4,31.1,29.64,West,269,6.0,10.0,95,0.00,,,0.07,meteohub,2013-03-12 00:17:00,
2013-03-11 19:22:00,32.2,30.6,29.65,West,259,4.0,10.0,94,0.00,,,0.07,meteohub,2013-03-12 00:22:00,
2013-03-11 19:27:00,32.2,30.6,29.65,West,267,3.0,10.0,94,0.00,,,0.07,meteohub,2013-03-12 00:27:00,
2013-03-11 19:32:00,32.0,30.6,29.65,West,262,6.0,10.0,94,0.00,,,0.07,meteohub,2013-03-12 00:32:00,
2013-03-11 19:37:00,31.8,30.0,29.65,West,269,4.0,9.0,93,0.00,,,0.07,meteohub,2013-03-12 00:37:00,
2013-03-11 19:43:00,31.8,30.0,29.66,West,268,7.0,10.0,93,0.00,,,0.07,meteohub,2013-03-12 00:43:00,
2013-03-11 19:48:00,31.6,29.8,29.66,West,271,4.0,10.0,93,0.00,,,0.07,meteohub,2013-03-12 00:48:00,
2013-03-11 19:53:00,31.6,29.7,29.67,WSW,258,7.0,9.0,92,0.00,,,0.07,meteohub,2013-03-12 00:53:00,
2013-03-11 19:58:00,31.5,29.1,29.67,West,275,6.0,8.0,91,0.00,,,0.07,meteohub,2013-03-12 00:58:00,
2013-03-11 20:03:00,31.5,29.1,29.67,West,265,6.0,13.0,91,0.00,,,0.07,meteohub,2013-03-12 01:03:00,
2013-03-11 20:08:00,31.5,29.1,29.68,West,270,6.0,13.0,91,0.00,,,0.07,meteohub,2013-03-12 01:08:00,
2013-03-11 20:13:00,31.5,28.9,29.68,WSW,247,3.0,13.0,90,0.00,,,0.07,meteohub,2013-03-12 01:13:00,
2013-03-11 20:19:00,31.5,28.9,29.68,West,268,4.0,10.0,90,0.00,,,0.07,meteohub,2013-03-12 01:19:00,
2013-03-11 20:24:00,31.3,28.8,29.68,West,279,4.0,10.0,90,0.00,,,0.07,meteohub,2013-03-12 01:24:00,
2013-03-11 20:29:00,31.3,28.8,29.69,West,266,5.0,10.0,90,0.00,,,0.07,meteohub,2013-03-12 01:29:00,
2013-03-11 20:34:00,31.1,28.6,29.69,West,267,5.0,10.0,90,0.00,,,0.07,meteohub,2013-03-12 01:34:00,
2013-03-11 20:39:00,30.9,28.4,29.69,West,259,4.0,8.0,90,0.00,,,0.07,meteohub,2013-03-12 01:39:00,
2013-03-11 20:45:00,30.9,28.4,29.70,West,275,6.0,9.0,90,0.00,,,0.07,meteohub,2013-03-12 01:45:00,
2013-03-11 20:50:00,30.9,28.4,29.70,WSW,245,9.0,10.0,90,0.00,,,0.07,meteohub,2013-03-12 01:50:00,
2013-03-11 20:55:00,30.9,28.4,29.70,West,273,3.0,14.0,90,0.00,,,0.07,meteohub,2013-03-12 01:55:00,
2013-03-11 21:00:00,30.9,28.0,29.70,West,280,6.0,14.0,89,0.00,,,0.07,meteohub,2013-03-12 02:00:00,
2013-03-11 21:05:00,30.9,28.0,29.71,WNW,286,7.0,14.0,89,0.00,,,0.07,meteohub,2013-03-12 02:05:00,
2013-03-11 21:11:00,30.9,28.4,29.71,West,273,3.0,10.0,90,0.00,,,0.07,meteohub,2013-03-12 02:11:00,
2013-03-11 21:16:00,30.9,28.4,29.70,WNW,286,5.0,8.0,90,0.00,,,0.07,meteohub,2013-03-12 02:16:00,
2013-03-11 21:21:00,30.9,28.4,29.70,WSW,256,3.0,8.0,90,0.00,,,0.07,meteohub,2013-03-12 02:21:00,
2013-03-11 21:26:00,30.9,28.4,29.70,West,261,4.0,8.0,90,0.00,,,0.07,meteohub,2013-03-12 02:26:00,
2013-03-11 21:31:00,30.7,28.2,29.71,West,267,4.0,8.0,90,0.00,,,0.07,meteohub,2013-03-12 02:31:00,
2013-03-11 21:37:00,30.6,28.2,29.71,West,259,4.0,10.0,91,0.00,,,0.07,meteohub,2013-03-12 02:37:00,
2013-03-11 21:42:00,30.4,28.4,29.71,WSW,248,8.0,11.0,92,0.00,,,0.07,meteohub,2013-03-12 02:42:00,
2013-03-11 21:47:00,30.2,28.4,29.71,WSW,244,9.0,11.0,93,0.00,,,0.07,meteohub,2013-03-12 02:47:00,
2013-03-11 21:52:00,29.8,28.0,29.72,WNW,288,10.0,14.0,93,0.00,,,0.07,meteohub,2013-03-12 02:52:00,
2013-03-11 21:57:00,29.8,28.0,29.72,West,278,7.0,14.0,93,0.00,,,0.07,meteohub,2013-03-12 02:57:00,
2013-03-11 22:02:00,29.7,27.9,29.72,West,259,4.0,14.0,93,0.00,,,0.07,meteohub,2013-03-12 03:02:00,
2013-03-11 22:08:00,29.5,27.7,29.72,West,274,5.0,14.0,93,0.00,,,0.07,meteohub,2013-03-12 03:08:00,
2013-03-11 22:13:00,29.5,27.7,29.72,WNW,288,5.0,10.0,93,0.00,,,0.07,meteohub,2013-03-12 03:13:00,
2013-03-11 22:18:00,29.3,27.5,29.73,West,279,6.0,8.0,93,0.00,,,0.07,meteohub,2013-03-12 03:18:00,
2013-03-11 22:24:00,29.1,27.3,29.73,West,275,3.0,8.0,93,0.00,,,0.07,meteohub,2013-03-12 03:24:00,
2013-03-11 22:29:00,29.1,27.3,29.73,West,259,5.0,8.0,93,0.00,,,0.07,meteohub,2013-03-12 03:29:00,
2013-03-11 22:34:00,28.9,27.1,29.73,West,269,7.0,9.0,93,0.00,,,0.07,meteohub,2013-03-12 03:34:00,
2013-03-11 22:39:00,29.1,27.3,29.73,West,273,5.0,10.0,93,0.00,,,0.07,meteohub,2013-03-12 03:39:00,
2013-03-11 22:44:00,29.1,27.3,29.74,West,281,5.0,10.0,93,0.00,,,0.07,meteohub,2013-03-12 03:44:00,
2013-03-11 22:49:00,29.1,27.3,29.74,WSW,248,8.0,14.0,93,0.00,,,0.07,meteohub,2013-03-12 03:49:00,
2013-03-11 22:54:00,28.9,27.1,29.74,West,267,6.0,14.0,93,0.00,,,0.07,meteohub,2013-03-12 03:54:00,
2013-03-11 23:00:00,28.9,27.1,29.74,WSW,248,8.0,14.0,93,0.00,,,0.07,meteohub,2013-03-12 04:00:00,
2013-03-11 23:02:00,28.9,27.1,29.74,West,273,6.0,10.0,93,0.00,,,0.07,meteohub,2013-03-12 04:02:00,
2013-03-11 23:08:00,28.8,26.8,29.75,NW,321,8.0,10.0,92,0.00,,,0.07,meteohub,2013-03-12 04:08:00,
2013-03-11 23:13:00,28.8,26.8,29.75,WNW,286,2.0,10.0,92,0.00,,,0.07,meteohub,2013-03-12 04:13:00,
2013-03-11 23:18:00,28.8,26.4,29.75,West,268,5.0,12.0,91,0.00,,,0.07,meteohub,2013-03-12 04:18:00,
2013-03-11 23:23:00,28.6,26.2,29.75,West,279,5.0,12.0,91,0.00,,,0.07,meteohub,2013-03-12 04:23:00,
2013-03-11 23:28:00,28.6,26.2,29.75,West,281,7.0,12.0,91,0.00,,,0.07,meteohub,2013-03-12 04:28:00,
2013-03-11 23:33:00,28.2,25.7,29.76,West,271,6.0,12.0,90,0.00,,,0.07,meteohub,2013-03-12 04:33:00,
2013-03-11 23:38:00,28.2,25.3,29.76,WNW,286,1.0,12.0,89,0.00,,,0.07,meteohub,2013-03-12 04:38:00,
2013-03-11 23:44:00,28.2,25.3,29.76,West,262,8.0,13.0,89,0.00,,,0.07,meteohub,2013-03-12 04:44:00,
2013-03-11 23:49:00,28.0,25.0,29.76,West,279,7.0,13.0,88,0.00,,,0.07,meteohub,2013-03-12 04:49:00,
2013-03-11 23:54:00,28.0,25.0,29.76,WNW,288,2.0,14.0,88,0.00,,,0.07,meteohub,2013-03-12 04:54:00,
2013-03-11 23:59:00,28.0,24.6,29.76,West,279,3.0,14.0,87,0.00,,,0.07,meteohub,2013-03-12 04:59:00,